Hillsboro, OR

10:07 AM PST on February 07, 2016 (GMT -0800)
Portland-Hillsboro

Weather History for KHIO - April, 2014

Change the Weather History Date:

Wednesday, April 23, 2014

  Actual Average Record
Temperature  
Mean Temperature 49 °F 51 °F  
Max Temperature 54 °F 62 °F 82 °F (2012)
Min Temperature 44 °F 40 °F 31 °F (1950)
Degree Days  
Heating Degree Days 16 14  
Month to date heating degree days 326 357  
Since 1 July heating degree days 4570 4471  
Cooling Degree Days 0 0  
Month to date cooling degree days 0 0  
Year to date cooling degree days 0 0  
Moisture  
Dew Point 47 °F    
Average Humidity 88    
Maximum Humidity 96    
Minimum Humidity 80    
Precipitation  
Precipitation 0.62 in 0.10 in 0.85 in (1996)
Month to date precipitation 2.45 2.39  
Year to date precipitation 15.99 16.59  
Snow  
Snow 0.00 in - - ()
Month to date snowfall 0.0  
Since 1 July snowfall 0.0  
Snow Depth 0.00 in    
Sea Level Pressure  
Sea Level Pressure 29.86 in    
Wind  
Wind Speed 12 mph (South)    
Max Wind Speed 22 mph    
Max Gust Speed 28 mph    
Visibility 8 miles    
Events Rain    
T = Trace of Precipitation, MM = Missing Value Source: NWS Daily Summary

Daily Weather History Graph

Daily Weather History Graph

Search for Another Location

Airport or City:

Trip Planner

Search our weather history database for the weather conditions in past years. The results will help you decide how hot, cold, wet, or windy it might be!

Date:

Astronomy

Apr. 23, 2014 Rise Set
Actual Time 6:12 AM PDT 8:08 PM PDT
Civil Twilight 5:40 AM PDT 8:40 PM PDT
Nautical Twilight 5:01 AM PDT 9:19 PM PDT
Astronomical Twilight 4:18 AM PDT 10:02 PM PDT
Moon 3:05 AM PDT (4/23) 2:06 PM PDT (4/23)
Length of Visible Light 14h 59m
Length of Day
13h 56m
Waning Crescent, 34% of the Moon is Illuminated
Apr 23
Waning Crescent
Apr 28
New
May 6
First Quarter
May 14
Full
May 21
Last Quarter

Hourly Weather History & Observations

Time (PDT) Temp. Windchill Dew Point Humidity Pressure Visibility Wind Dir Wind Speed Gust Speed Precip Events Conditions
12:53 AM 46.0 °F 40.6 °F 42.1 °F 86% 29.95 in 10.0 mi South 11.5 mph - N/A   Overcast
1:53 AM 46.0 °F 41.0 °F 42.1 °F 86% 29.95 in 10.0 mi South 10.4 mph - 0.02 in   Overcast
2:53 AM 46.0 °F 40.6 °F 42.1 °F 86% 29.95 in 10.0 mi South 11.5 mph - 0.00 in Rain Light Rain
3:01 AM 46.0 °F 41.0 °F 42.1 °F 86% 29.95 in 10.0 mi South 10.4 mph - 0.00 in Rain Light Rain
3:53 AM 45.0 °F 39.3 °F 42.1 °F 90% 29.96 in 10.0 mi South 11.5 mph - 0.02 in Rain Light Rain
4:53 AM 45.0 °F 40.1 °F 42.1 °F 90% 29.96 in 10.0 mi South 9.2 mph - 0.01 in Rain Light Rain
5:53 AM 45.0 °F 41.2 °F 42.1 °F 90% 29.95 in 7.0 mi South 6.9 mph - 0.05 in Rain Light Rain
6:53 AM 45.0 °F 41.2 °F 43.0 °F 93% 29.95 in 10.0 mi SSE 6.9 mph - 0.03 in Rain Light Rain
7:53 AM 46.0 °F 41.9 °F 43.0 °F 89% 29.94 in 5.0 mi South 8.1 mph - 0.04 in Rain Light Rain
8:53 AM 46.0 °F 41.4 °F 43.0 °F 89% 29.94 in 10.0 mi South 9.2 mph - 0.04 in Rain Light Rain
10:53 AM 50.0 °F - 45.0 °F 83% 29.92 in 10.0 mi South 11.5 mph - 0.00 in Rain Light Rain
11:53 AM 52.0 °F - 46.9 °F 83% 29.91 in 10.0 mi South 18.4 mph 24.2 mph 0.00 in   Overcast
1:53 PM 52.0 °F - 48.0 °F 86% 29.90 in 5.0 mi South 10.4 mph - 0.04 in Rain Light Rain
1:59 PM 52.0 °F - 48.9 °F 89% 29.89 in 4.0 mi SSE 11.5 mph - 0.01 in Rain Light Rain
2:04 PM 52.0 °F - 48.9 °F 89% 29.89 in 5.0 mi SSE 10.4 mph - 0.01 in Rain Light Rain
2:16 PM 52.0 °F - 48.9 °F 89% 29.89 in 6.0 mi South 8.1 mph - 0.01 in Rain Light Rain
2:53 PM 53.1 °F - 48.9 °F 86% 29.88 in 9.0 mi South 12.7 mph 21.9 mph 0.05 in Rain Light Rain
3:53 PM 53.1 °F - 48.9 °F 86% 29.86 in 9.0 mi South 12.7 mph - 0.03 in Rain Light Rain
4:05 PM 53.1 °F - 50.0 °F 89% 29.85 in 9.0 mi South 11.5 mph - 0.00 in Rain Light Rain
4:53 PM 53.1 °F - 50.0 °F 89% 29.82 in 8.0 mi South 12.7 mph - 0.04 in Rain Light Rain
5:08 PM 53.1 °F - 50.0 °F 89% 29.81 in 8.0 mi SSE 13.8 mph - 0.00 in Rain Light Rain
5:53 PM 52.0 °F - 48.9 °F 89% 29.80 in 4.0 mi SSE 10.4 mph - 0.07 in Rain Light Rain
6:24 PM 52.0 °F - 48.9 °F 89% 29.79 in 5.0 mi SSE 11.5 mph - 0.04 in Rain Light Rain
6:53 PM 52.0 °F - 48.9 °F 89% 29.78 in 5.0 mi SSE 16.1 mph - 0.08 in Rain Light Rain
7:53 PM 52.0 °F - 48.9 °F 89% 29.75 in 6.0 mi South 15.0 mph 23.0 mph 0.03 in Rain Light Rain
8:53 PM 52.0 °F - 50.0 °F 93% 29.75 in 10.0 mi South 13.8 mph - 0.02 in Rain Light Rain
9:53 PM 52.0 °F - 50.0 °F 93% 29.75 in 6.0 mi South 15.0 mph - 0.01 in Rain Light Rain
10:15 PM 53.1 °F - 50.0 °F 89% 29.74 in 10.0 mi South 15.0 mph - 0.00 in   Overcast
10:53 PM 53.1 °F - 50.0 °F 89% 29.74 in 9.0 mi South 16.1 mph 21.9 mph 0.00 in   Overcast
11:20 PM 53.1 °F - 48.9 °F 86% 29.74 in 10.0 mi South 15.0 mph - 0.00 in Rain Light Rain
11:53 PM 53.1 °F - 48.9 °F 86% 29.73 in 10.0 mi South 13.8 mph - 0.00 in Rain Light Rain